{"data":{"norad_id":62104,"intl_designator":"2024-220S","name":"STARLINK-33555","alt_names":[],"object_type":"PAYLOAD","status":"ACTIVE","operator":null,"country":"US","launch_date":"2024-11-25","launch_site_code":"AFETR","launch_vehicle":null,"mission":null,"orbit_class":"UNKNOWN","rcs_meters":null,"size_class":null,"mass_kg":null,"dimensions":null,"purposes":["comms"],"wikipedia_slug":null,"has_3d_model":false,"image_url":null,"decayed_at":null,"tle_current":{"epoch":"2026-05-25T00:31:49.954944Z","epoch_age_seconds":67066,"freshness":"FRESH","line1":"1 62104U 24220S   26145.02210596  .00016494  00000+0  60712-3 0  9998","line2":"2 62104  42.9942 134.5966 0000190   8.9781 351.1074 15.27603564 84835","mean_motion":15.27603564,"eccentricity":1.9e-5,"inclination_deg":42.9942,"raan_deg":134.5966,"arg_perigee_deg":8.9781,"mean_anomaly_deg":351.1074,"bstar":0.00060712,"rev_number":8483,"period_min":94.265294604929,"perigee_km":482.84817665834,"apogee_km":483.10889904877,"semimajor_km":6861.1155378536,"source":"CELESTRAK","updated_at":"2026-05-25T13:38:19.560634Z"}}}